TimeEET,TemperatureF,Dew PointF,Humidity,Sea Level PressureIn,VisibilityMPH,Wind Direction,Wind SpeedMPH,Gust SpeedMPH,PrecipitationIn,Events,Conditions,WindDirDegrees,DateUTC
12:00 AM,71.6,62.6,73,29.86,6.2,West,11.5,-,N/A,,Scattered Clouds,280,2012-11-08 22:00:00
1:00 AM,69.8,60.8,73,29.86,6.2,West,11.5,-,N/A,,Scattered Clouds,280,2012-11-08 23:00:00
2:00 AM,71,60,59,29.86,6,West,13.8,,,,,280,2012-11-09 00:00:00
2:00 AM,69.8,59.0,68,29.86,6.2,West,13.8,-,N/A,,Scattered Clouds,280,2012-11-09 00:00:00
4:00 AM,69.8,60.8,73,29.83,6.2,SSW,11.5,-,N/A,,Scattered Clouds,200,2012-11-09 02:00:00
5:00 AM,69.8,59.0,68,29.86,6.2,WNW,11.5,-,N/A,,Scattered Clouds,290,2012-11-09 03:00:00
6:00 AM,69.8,59.0,68,29.86,6.2,WNW,13.8,-,N/A,,Scattered Clouds,290,2012-11-09 04:00:00
7:00 AM,71.6,59.0,64,29.89,6.2,WNW,11.5,-,N/A,,Scattered Clouds,290,2012-11-09 05:00:00
8:00 AM,72,57,50,29.86,6,WNW,13.8,,,,Mostly Cloudy,300,2012-11-09 06:00:00
8:00 AM,71.6,51.8,50,29.86,6.2,WNW,13.8,-,N/A,,Scattered Clouds,300,2012-11-09 06:00:00
9:00 AM,73.4,59.0,61,29.89,6.2,West,13.8,-,N/A,,Scattered Clouds,280,2012-11-09 07:00:00
10:00 AM,73.4,60.8,65,29.92,6.2,WNW,16.1,-,N/A,,Scattered Clouds,300,2012-11-09 08:00:00
11:00 AM,75.2,60.8,61,29.89,6.2,WNW,16.1,-,N/A,,Scattered Clouds,300,2012-11-09 09:00:00
12:00 PM,71.6,60.8,69,29.89,6.2,WNW,17.3,-,N/A,,Scattered Clouds,300,2012-11-09 10:00:00
1:00 PM,68.0,62.6,83,29.89,6.2,WSW,6.9,-,N/A,,Scattered Clouds,250,2012-11-09 11:00:00
2:00 PM,72,62,63,29.88,6,NW,17.3,,,,Mostly Cloudy,310,2012-11-09 12:00:00
2:00 PM,71.6,62.6,73,29.86,6.2,NW,17.3,-,N/A,,Scattered Clouds,310,2012-11-09 12:00:00
3:00 PM,73.4,62.6,69,29.89,6.2,WNW,18.4,-,N/A,,Scattered Clouds,300,2012-11-09 13:00:00
4:00 PM,73.4,62.6,69,29.89,6.2,NW,17.3,-,N/A,,Scattered Clouds,310,2012-11-09 14:00:00
5:00 PM,71.6,62.6,73,29.89,6.2,WNW,13.8,-,N/A,,Scattered Clouds,300,2012-11-09 15:00:00
6:00 PM,71.6,62.6,73,29.89,6.2,WNW,16.1,-,N/A,,Scattered Clouds,300,2012-11-09 16:00:00
7:00 PM,69.8,60.8,73,29.92,6.2,WNW,12.7,-,N/A,,Scattered Clouds,290,2012-11-09 17:00:00
8:00 PM,70,60,63,29.94,6,WNW,12.7,,,,Mostly Cloudy,300,2012-11-09 18:00:00
8:00 PM,69.8,60.8,73,29.92,6.2,WNW,12.7,-,N/A,,Scattered Clouds,300,2012-11-09 18:00:00
9:00 PM,69.8,59.0,68,29.95,6.2,West,13.8,-,N/A,,Scattered Clouds,280,2012-11-09 19:00:00
10:00 PM,69.8,59.0,68,29.95,6.2,WNW,11.5,-,N/A,,Scattered Clouds,300,2012-11-09 20:00:00
11:00 PM,69.8,57.2,64,29.95,6.2,WNW,6.9,-,N/A,,Scattered Clouds,290,2012-11-09 21:00:00